Abergele, United Kingdom
Current Conditions -  °F | °C
As of 8:50 AM on Wednesday 22 Oct 2014 (Local Time) from EGNR Reporting Station
Few Clouds Few Clouds  
Wind Chill: 52°   Ceiling: Unl
Heat Index: 52°   Visibility: 6mi
Dew Point: 45°   Wind: 13mph
Humidity: 76%   Direction: 270°W
Pressure: 30.24"   Gusts: NA
Location:  53.28°N, 3.58°W
Report Text: EGNR 220750Z 27011KT 240V300 9999 FEW028 11/07 Q1024
Loading
Personal Weather Stations






























Interactive Weather Map
Tropical Storm Tracking
New forecast layout! Learn more

10-Day Weather Forecast

Advertisements
Track Severe Weather on mobile